[[{"header":{"parameterUnit":"m.s-1","parameterCategory":1,"la1":30.2992,"la2":30.254,"lo1":-89.0895,"lo2":-89.0443,"dy":0.0025,"dx":0.0025,"nx":19,"ny":19,"refTime":"2026-05-16T03:00:00:Z","depth":0,"parameterNumber":2,"parameterNumberName":"U-component_of_WINDS"},"data":[0,0,0,-2.2153,-2.2153,-2.2148,-2.2148,-2.2156,-2.2156,0,0,0,0,0,0,0,0,0,0,0,-2.2163,-2.2163,-2.2153,-2.2153,-2.2148,-2.2148,-2.2156,-2.2156,0,0,0,0,0,0,0,0,0,0,0,-2.2163,-2.2163,-2.2164,-2.2153,-2.2148,-2.2148,-2.2156,-2.2154,0,0,0,0,0,0,0,0,0,0,-2.2157,-2.2175,-2.2163,-2.2164,-2.2153,-2.2148,-2.2148,-2.2154,-2.2154,-2.2164,0,-2.2175,0,-2.2166,-2.2157,-2.2157,0,0,0,-2.2146,-2.2175,-2.2165,-2.2164,-2.2153,-2.2148,-2.2148,-2.2154,-2.2155,-2.2165,-2.2175,-2.2175,-2.2166,-2.2158,-2.2158,-2.2236,-2.2237,0,0,-2.2146,-2.2167,-2.2165,-2.2166,-2.2168,-2.2148,-2.2148,-2.2154,-2.2167,-2.2175,-2.2175,-2.2166,-2.2158,-2.2158,-2.2235,-2.2236,0,0,0,-2.2152,-2.2167,-2.2157,-2.2166,-2.2164,-2.2148,-2.2148,-2.2167,-2.2162,-2.2175,-2.2166,-2.2158,-2.2158,-2.2235,-2.2236,-2.2288,0,0,0,-2.2152,-2.217,-2.2158,-2.217,-2.2164,-2.2165,-2.2161,-2.2161,-2.2161,-2.2166,-2.2158,-2.2158,-2.2234,-2.2235,-2.2285,-2.231,0,0,0,-2.216,-2.2171,-2.2174,-2.2172,-2.217,-2.2165,-2.216,-2.2161,-2.2156,-2.2158,-2.2158,-2.2233,-2.2235,-2.2283,-2.2305,-2.2336,0,0,0,-2.2176,-2.2221,-2.2175,-2.2222,-2.217,-2.2198,-2.216,-2.2179,-2.2186,-2.2158,-2.2234,-2.2236,-2.2282,-2.2303,-2.2333,-2.2366,-2.2381,0,0,-2.2244,-2.223,-2.2256,-2.2215,-2.2255,-2.2197,-2.2245,-2.2232,-2.2214,-2.223,-2.2231,-2.2286,-2.2305,-2.2336,-2.2461,-2.2473,0,0,0,-2.2285,-2.2304,-2.231,-2.2318,-2.231,-2.2304,-2.2282,-2.2277,-2.2289,-2.2226,-2.2305,-2.2316,-2.2333,-2.2347,-2.2358,-2.2371,-2.2243,-2.2243,-2.2243,-2.2412,-2.2385,-2.2427,-2.24,-2.2408,-2.2384,-2.2388,-2.2378,-2.2349,-2.2368,-2.2373,-2.2452,-2.247,-2.2477,-2.2491,-2.2388,-2.2388,-2.2388,-2.2388,-2.251,-2.2532,-2.2493,-2.2518,-2.249,-2.2512,-2.2491,-2.2469,-2.2485,-2.2446,-2.246,-2.242,-2.2492,-2.2502,-2.2392,-2.2391,-2.2391,-2.2391,-2.239,-2.259,-2.2596,-2.2589,-2.2597,-2.2606,-2.2577,-2.2594,-2.2568,-2.2543,-2.2557,-2.2558,-2.2557,-2.2553,-2.2559,-2.256,-2.256,-2.256,-2.256,-2.256,-2.2675,-2.2666,-2.2683,-2.2677,-2.2678,-2.2677,-2.2653,-2.2654,-2.2647,-2.2627,-2.2627,-2.2596,-2.2504,-2.2481,-2.2565,-2.2564,-2.2563,-2.2563,-2.2563,-2.2784,-2.2755,-2.2782,-2.2783,-2.2774,-2.2784,-2.275,-2.2753,-2.275,-2.2759,-2.2725,-2.2661,-2.2645,-2.2636,-2.2617,-2.2731,-2.2731,-2.2731,-2.2731,-2.2851,-2.284,-2.2861,-2.2865,-2.2865,-2.2837,-2.2868,-2.285,-2.2826,-2.2822,-2.2802,-2.2775,-2.2767,-2.2755,-2.2744,-2.2725,-2.2864,-2.2865,-2.2865,-2.2917,-2.2904,-2.2936,-2.2912,-2.2903,-2.2895,-2.2923,-2.2928,-2.2896,-2.287,-2.2819,-2.2813,-2.2768,-2.2755,-2.2728,-2.2711,-2.2677,0,0]},{"header":{"parameterUnit":"m.s-1","parameterCategory":1,"la1":30.2992,"la2":30.254,"lo1":-89.0895,"lo2":-89.0443,"dy":0.0025,"dx":0.0025,"nx":19,"ny":19,"refTime":"2026-05-16T03:00:00:Z","depth":0,"parameterNumber":3,"parameterNumberName":"V-component_of_WINDS"},"data":[0,0,0,4.3679,4.3681,4.3763,4.3763,4.3886,4.3887,0,0,0,0,0,0,0,0,0,0,0,4.3667,4.3668,4.3678,4.3681,4.3763,4.3763,4.3886,4.3887,0,0,0,0,0,0,0,0,0,0,0,4.3666,4.3668,4.367,4.3681,4.3762,4.3763,4.3885,4.3817,0,0,0,0,0,0,0,0,0,0,4.3734,4.3736,4.3668,4.367,4.3682,4.3762,4.3763,4.3813,4.3821,4.3857,0,4.3894,0,4.3893,4.3897,4.3897,0,0,0,4.3671,4.373,4.374,4.367,4.3683,4.3762,4.3723,4.3817,4.3826,4.3868,4.3896,4.39,4.3895,4.3898,4.3898,4.4143,4.4145,0,0,4.3666,4.3688,4.3734,4.3747,4.3737,4.372,4.3726,4.3822,4.3854,4.3896,4.3902,4.3897,4.3899,4.39,4.4142,4.4144,0,0,0,4.366,4.3686,4.3693,4.3742,4.3756,4.3723,4.3729,4.3849,4.385,4.3904,4.3899,4.3899,4.3901,4.414,4.4142,4.4243,0,0,0,4.3657,4.3682,4.3692,4.3706,4.3754,4.3804,4.3754,4.3843,4.3854,4.3898,4.39,4.3903,4.4138,4.4141,4.4236,4.4286,0,0,0,4.3657,4.3682,4.3698,4.3707,4.3744,4.3802,4.3808,4.3845,4.3851,4.3897,4.3903,4.4137,4.4141,4.423,4.4277,4.4356,0,0,0,4.3664,4.3787,4.37,4.3835,4.3743,4.3864,4.3807,4.3896,4.3948,4.39,4.4138,4.4142,4.4229,4.4271,4.435,4.4427,4.4461,0,0,4.3831,4.3808,4.3885,4.381,4.3953,4.385,4.4006,4.4033,4.4016,4.4101,4.4107,4.4239,4.4276,4.4355,4.4648,4.4675,0,0,0,4.3946,4.4002,4.4035,4.4085,4.4109,4.4132,4.4132,4.4141,4.4213,4.4065,4.4289,4.431,4.4356,4.4391,4.4415,4.4451,4.416,4.4159,4.4159,4.4214,4.4187,4.4313,4.4296,4.4345,4.4344,4.4381,4.4393,4.4351,4.4404,4.4429,4.461,4.4652,4.467,4.4709,4.4468,4.4468,4.4469,4.4469,4.4455,4.4529,4.4471,4.4572,4.4542,4.4626,4.4629,4.4596,4.4669,4.4589,4.4628,4.4542,4.4701,4.4733,4.4476,4.4475,4.4474,4.4473,4.4473,4.4627,4.4657,4.4667,4.4737,4.4793,4.4771,4.4844,4.4814,4.4786,4.4824,4.4846,4.4845,4.4838,4.4837,4.4838,4.4838,4.4839,4.4839,4.484,4.48,4.4808,4.4874,4.4908,4.4936,4.4969,4.4968,4.4994,4.5015,4.4987,4.4987,4.4939,4.4722,4.4667,4.4849,4.4848,4.4846,4.4846,4.4845,4.5053,4.4991,4.5092,4.5121,4.5158,4.5215,4.5176,4.5231,4.5249,4.5285,4.5229,4.5073,4.5047,4.5028,4.4982,4.5235,4.5235,4.5235,4.5235,4.5197,4.5181,4.5277,4.5323,4.5366,4.534,4.5454,4.5454,4.5443,4.5452,4.5411,4.5349,4.5331,4.5315,4.529,4.5246,4.5561,4.5561,4.5561,4.535,4.5337,4.544,4.543,4.5457,4.548,4.5585,4.5639,4.5615,4.5574,4.5458,4.5444,4.5342,4.5311,4.5267,4.5229,4.5149,0,0]}]]